Duncan, OK

11:30 AM CST on November 22, 2019 (GMT -0600)
Halliburton

Weather History for KDUC - September, 2019

Change the Weather History Date:

Tuesday, September 17, 2019

  Actual Average (KLAW) Record (KLAW)
Temperature  
Mean Temperature 80 °F 74 °F  
Max Temperature 91 °F 87 °F 101 °F (1980)
Min Temperature 69 °F 62 °F 42 °F (1981)
Degree Days  
Heating Degree Days 0 0  
Month to date heating degree days 0  
Since 1 July heating degree days 0  
Cooling Degree Days 15 10  
Month to date cooling degree days 213  
Year to date cooling degree days 2129  
Growing Degree Days 30 (Base 50)    
Moisture  
Dew Point 67 °F    
Average Humidity 67    
Maximum Humidity 88    
Minimum Humidity 42    
Precipitation  
Precipitation 0.00 in 0.09 in 1.70 in (1987)
Month to date precipitation 2.09  
Year to date precipitation 22.77  
Sea Level Pressure  
Sea Level Pressure 30.00 in    
Wind  
Wind Speed 6 mph (ESE)    
Max Wind Speed 15 mph    
Max Gust Speed 18 mph    
Visibility 10 miles    
Events      
T = Trace of Precipitation, MM = Missing Value Source: NWS Daily Summary

Daily Weather History Graph

Daily Weather History Graph

Search for Another Location

Airport or City:

Astronomy

Sep. 17, 2019 Rise Set
Actual Time 7:16 AM CDT 7:35 PM CDT
Civil Twilight 6:51 AM CDT 8:01 PM CDT
Nautical Twilight 6:21 AM CDT 8:30 PM CDT
Astronomical Twilight 5:51 AM CDT 9:00 PM CDT
Moon 9:47 PM CDT (9/17) 10:15 AM CDT (9/17)
Length of Visible Light 13h 10m
Length of Day
12h 19m
Waning Gibbous, 89% of the Moon is Illuminated
Sep 17
Waning Gibbous
Sep 21
Last Quarter
Sep 28
New
Oct 5
First Quarter
Oct 13
Full

Hourly Weather History & Observations

Time (CDT) Temp. Heat Index Dew Point Humidity Pressure Visibility Wind Dir Wind Speed Gust Speed Precip Events Conditions
12:15 AM 75.0 °F - 66.6 °F 75% 30.01 in 10.0 mi ESE 5.8 mph - N/A   Clear
12:35 AM 74.3 °F - 66.7 °F 77% 30.01 in 10.0 mi ESE 5.8 mph - N/A   Clear
12:55 AM 74.3 °F - 66.6 °F 77% 30.01 in 10.0 mi SE 3.5 mph - N/A   Clear
1:15 AM 74.5 °F - 66.4 °F 76% 30.01 in 10.0 mi East 3.5 mph - N/A   Clear
1:35 AM 73.9 °F - 66.6 °F 78% 30.01 in 10.0 mi ESE 5.8 mph - N/A   Clear
1:55 AM 73.8 °F - 66.6 °F 78% 30.01 in 10.0 mi ESE 3.5 mph - N/A   Clear
2:15 AM 73.8 °F - 66.4 °F 78% 30.02 in 10.0 mi East 3.5 mph - N/A   Clear
2:35 AM 72.7 °F - 66.7 °F 82% 30.02 in 10.0 mi East 5.8 mph - N/A   Clear
2:55 AM 72.5 °F - 66.4 °F 81% 30.02 in 10.0 mi ESE 5.8 mph - N/A   Clear
3:15 AM 71.8 °F - 66.4 °F 83% 30.01 in 10.0 mi East 5.8 mph - N/A   Clear
3:35 AM 71.4 °F - 66.4 °F 84% 30.01 in 10.0 mi East 5.8 mph - N/A   Clear
3:50 AM 70.9 °F - 66.2 °F 85% 30.01 in 10.0 mi Calm Calm - N/A   Clear
4:15 AM 71.8 °F - 66.2 °F 83% 30.01 in 10.0 mi East 4.6 mph - N/A   Clear
4:35 AM 71.1 °F - 66.2 °F 85% 30.01 in 10.0 mi East 4.6 mph - N/A   Clear
4:55 AM 71.4 °F - 66.2 °F 84% 30.01 in 10.0 mi East 4.6 mph - N/A   Clear
5:15 AM 71.2 °F - 66.2 °F 84% 30.01 in 10.0 mi East 4.6 mph - N/A   Clear
5:35 AM 70.3 °F - 66.0 °F 86% 30.02 in 10.0 mi East 3.5 mph - N/A   Clear
5:55 AM 70.9 °F - 65.8 °F 84% 30.02 in 10.0 mi ESE 4.6 mph - N/A   Clear
6:15 AM 70.5 °F - 66.2 °F 86% 30.02 in 10.0 mi East 3.5 mph - N/A   Clear
6:35 AM 70.3 °F - 65.8 °F 86% 30.03 in 10.0 mi East 6.9 mph - N/A   Clear
6:55 AM 69.8 °F - 65.8 °F 87% 30.03 in 10.0 mi ESE 6.9 mph - N/A   Clear
7:15 AM 69.8 °F - 65.8 °F 87% 30.03 in 10.0 mi East 6.9 mph - N/A   Clear
7:35 AM 69.4 °F - 65.8 °F 88% 30.04 in 10.0 mi East 4.6 mph - N/A   Clear
7:55 AM 70.9 °F - 66.4 °F 86% 30.04 in 10.0 mi East 5.8 mph - N/A   Clear
8:15 AM 72.3 °F - 66.6 °F 82% 30.04 in 10.0 mi East 5.8 mph - N/A   Clear
8:35 AM 73.8 °F - 67.5 °F 81% 30.04 in 10.0 mi East 4.6 mph - N/A   Clear
8:55 AM 74.7 °F - 67.8 °F 79% 30.04 in 10.0 mi ESE 5.8 mph - N/A   Clear
9:15 AM 76.5 °F - 68.5 °F 76% 30.05 in 10.0 mi ESE 5.8 mph - N/A   Clear
9:55 AM 80.4 °F 83.2 °F 68.7 °F 67% 30.05 in 10.0 mi SE 4.6 mph - N/A   Clear
10:15 AM 81.7 °F 84.5 °F 68.2 °F 63% 30.05 in 10.0 mi SSE 5.8 mph - N/A   Clear
10:35 AM 83.3 °F 86.6 °F 68.7 °F 61% 30.06 in 10.0 mi South 5.8 mph - N/A   Clear
10:55 AM 84.6 °F 88.5 °F 69.1 °F 60% 30.06 in 10.0 mi SSE 5.8 mph - N/A   Clear
11:15 AM 85.3 °F 89.4 °F 69.6 °F 59% 30.06 in 10.0 mi South 6.9 mph - N/A   Clear
11:35 AM 85.6 °F 89.7 °F 69.3 °F 58% 30.05 in 10.0 mi SE 4.6 mph - N/A   Clear
11:55 AM 87.4 °F 91.9 °F 69.4 °F 55% 30.05 in 10.0 mi South 11.5 mph - N/A   Clear
12:55 PM 89.1 °F 93.7 °F 69.1 °F 52% 30.03 in 10.0 mi SSE 11.5 mph - N/A   Clear
1:15 PM 90.0 °F 94.1 °F 68.2 °F 49% 30.02 in 10.0 mi SSE 13.8 mph - N/A   Clear
1:35 PM 89.8 °F 93.3 °F 67.6 °F 48% 30.01 in 10.0 mi SE 13.8 mph - N/A   Clear
1:55 PM 90.3 °F 93.9 °F 67.5 °F 47% 30.01 in 10.0 mi South 12.7 mph 18.4 mph N/A   Clear
2:10 PM 89.1 °F 91.3 °F 66.0 °F 46% 30.00 in 10.0 mi SSE 15.0 mph - N/A   Clear
2:35 PM 90.7 °F 92.4 °F 64.8 °F 42% 29.99 in 10.0 mi SSE 10.4 mph - N/A   Scattered Clouds
2:55 PM 91.2 °F 93.7 °F 65.7 °F 43% 29.98 in 10.0 mi South 13.8 mph 17.3 mph N/A   Mostly Cloudy
3:15 PM 90.7 °F 92.8 °F 65.5 °F 43% 29.98 in 10.0 mi SE 10.4 mph 17.3 mph N/A   Scattered Clouds
3:35 PM 91.6 °F 93.9 °F 65.3 °F 42% 29.97 in 10.0 mi SE 11.5 mph - N/A   Scattered Clouds
3:55 PM 90.1 °F 92.3 °F 65.3 °F 44% 29.97 in 10.0 mi SSE 9.2 mph - N/A   Scattered Clouds
4:15 PM 91.6 °F 93.9 °F 65.7 °F 42% 29.96 in 10.0 mi SSE 13.8 mph - N/A   Scattered Clouds
4:35 PM 91.4 °F 94.5 °F 66.6 °F 44% 29.95 in 10.0 mi ESE 9.2 mph - N/A   Scattered Clouds
4:55 PM 90.9 °F 93.1 °F 65.8 °F 43% 29.95 in 10.0 mi ESE 10.4 mph - N/A   Scattered Clouds
5:35 PM 91.0 °F 93.8 °F 66.6 °F 44% 29.94 in 10.0 mi ESE 11.5 mph 17.3 mph N/A   Mostly Cloudy
5:55 PM 89.8 °F 92.1 °F 65.8 °F 45% 29.94 in 10.0 mi SE 10.4 mph - N/A   Scattered Clouds
6:15 PM 90.0 °F 92.8 °F 66.6 °F 46% 29.94 in 10.0 mi SE 11.5 mph - N/A   Scattered Clouds
6:35 PM 88.3 °F 91.6 °F 67.6 °F 50% 29.94 in 10.0 mi SE 8.1 mph - N/A   Clear
6:55 PM 87.4 °F 91.9 °F 69.3 °F 55% 29.94 in 10.0 mi ESE 4.6 mph - N/A   Clear
7:15 PM 85.6 °F 89.7 °F 69.3 °F 58% 29.94 in 10.0 mi East 5.8 mph - N/A   Scattered Clouds
7:35 PM 83.7 °F 87.2 °F 68.9 °F 61% 29.94 in 10.0 mi East 5.8 mph - N/A   Clear
7:50 PM 82.8 °F 86.0 °F 68.7 °F 62% 29.94 in 10.0 mi East 5.8 mph - N/A   Clear
8:15 PM 81.0 °F 83.9 °F 68.7 °F 66% 29.94 in 10.0 mi East 8.1 mph - N/A   Clear
8:35 PM 79.7 °F - 69.1 °F 70% 29.94 in 10.0 mi ESE 6.9 mph - N/A   Clear
8:55 PM 78.8 °F - 68.7 °F 71% 29.95 in 10.0 mi ESE 6.9 mph - N/A   Clear
9:15 PM 78.8 °F - 68.2 °F 70% 29.95 in 10.0 mi ESE 6.9 mph - N/A   Clear
9:35 PM 78.3 °F - 67.8 °F 70% 29.96 in 10.0 mi ESE 9.2 mph - N/A   Clear
9:55 PM 78.1 °F - 67.3 °F 69% 29.95 in 10.0 mi SE 8.1 mph - N/A   Clear
10:15 PM 78.6 °F - 66.7 °F 67% 29.96 in 10.0 mi SE 10.4 mph - N/A   Clear
10:35 PM 78.3 °F - 66.4 °F 67% 29.96 in 10.0 mi SE 5.8 mph - N/A   Clear
10:55 PM 78.3 °F - 66.4 °F 67% 29.96 in 10.0 mi SSE 8.1 mph - N/A   Clear
11:15 PM 77.5 °F - 66.6 °F 69% 29.96 in 10.0 mi SE 8.1 mph - N/A   Clear
11:35 PM 77.2 °F - 66.7 °F 70% 29.96 in 10.0 mi SSE 8.1 mph - N/A   Clear
11:55 PM 76.5 °F - 66.7 °F 72% 29.96 in 10.0 mi SE 6.9 mph - N/A   Clear